Location: Felsheim
(48.7267°N, 10.7386°E)
Time: 11:03:18
(UTC+00:00)

Cosmos 962 Rocket - Pass Details

Date: 09 April 2020
Orbit: 950 x 1000 km, 82.9° (Epoch: 25 May)

Event Time Altitude Azimuth Distance (km) Brightness Sun altitude
Rises 19:18:44 0° 351° (N) 3,657 8.1 -12.9°
Reaches altitude 10° 19:21:15 10° 352° (N) 2,701 7.3 -13.3°
Maximum altitude 19:27:27 83° 81° (E) 966 4.4 -14.1°
Drops below altitude 10° 19:33:33 10° 170° (S) 2,669 6.4 -15.0°
Enters shadow 19:34:10 - 170° (S) 2,901 6.6 -15.1°
